Weather History for KMTN - May, 2013

Change the Weather History Date:

Thursday, May 9, 2013

  Actual Average Record
Temperature  
Mean Temperature 62 °F -  
Max Temperature 69 °F 69 °F 86 °F (2000)
Min Temperature 55 °F 52 °F 46 °F (1997)
Degree Days  
Heating Degree Days 3    
Growing Degree Days 12 (Base 50)    
Moisture  
Dew Point 59 °F    
Average Humidity 90    
Maximum Humidity 100    
Minimum Humidity 64    
Precipitation  
Precipitation 0.00 in - - ()
Sea Level Pressure  
Sea Level Pressure 29.97 in    
Wind  
Wind Speed 3 mph (South)    
Max Wind Speed 12 mph    
Max Gust Speed -    
Visibility 8 miles    
Events Fog , Rain    
Averages and records for this station are not official NWS values.
T = Trace of Precipitation, MM = Missing Value Source: NWS Daily Summary

Daily Weather History Graph

Daily Weather History Graph

Search for Another Location

Airport or City:

Trip Planner

Search our weather history database for the weather conditions in past years. The results will help you decide how hot, cold, wet, or windy it might be!

Date:

Astronomy

May. 09, 2013 Rise Set
Actual Time 5:57 AM EDT 8:07 PM EDT
Civil Twilight 5:27 AM EDT 8:36 PM EDT
Nautical Twilight 4:51 AM EDT 9:13 PM EDT
Astronomical Twilight 4:11 AM EDT 9:53 PM EDT
Moon 5:40 AM EDT (5/9) 8:00 PM EDT (5/9)
Length of Visible Light 15h 08m
Length of Day
14h 09m
Waning Crescent, 0% of the Moon is Illuminated
May 9
Waning Crescent
May 9
New
May 18
First Quarter
May 25
Full
May 31
Last Quarter

Hourly Weather History & Observations

Time (EDT) Temp. Dew Point Humidity Pressure Visibility Wind Dir Wind Speed Gust Speed Precip Events Conditions
1:09 AM 60.8 °F 59.0 °F 94% 29.98 in 10.0 mi Calm Calm - N/A   Overcast
1:30 AM 60.8 °F 59.0 °F 94% 29.97 in 10.0 mi ESE 6.9 mph - N/A   Overcast
1:48 AM 59.0 °F 57.2 °F 94% 29.96 in 10.0 mi Calm Calm - N/A   Overcast
2:09 AM 59.0 °F 57.2 °F 94% 29.95 in 10.0 mi Calm Calm - N/A   Overcast
2:30 AM 59.0 °F 57.2 °F 94% 29.95 in 10.0 mi Calm Calm - N/A Rain Light Rain
2:48 AM 59.0 °F 57.2 °F 94% 29.95 in 10.0 mi Calm Calm - N/A   Light Drizzle
3:30 AM 59.0 °F 57.2 °F 94% 29.95 in 10.0 mi Calm Calm - N/A   Mostly Cloudy
3:48 AM 57.2 °F 55.4 °F 94% 29.94 in 7.0 mi Calm Calm - N/A   Mostly Cloudy
4:09 AM 59.0 °F 59.0 °F 100% 29.94 in 10.0 mi Calm Calm - N/A   Mostly Cloudy
4:30 AM 57.2 °F 57.2 °F 100% 29.94 in 10.0 mi Calm Calm - N/A   Scattered Clouds
4:48 AM 55.4 °F 55.4 °F 100% 29.94 in 10.0 mi Calm Calm - N/A   Mostly Cloudy
5:30 AM 55.4 °F 55.4 °F 100% 29.94 in 7.0 mi Calm Calm - N/A   Scattered Clouds
5:45 AM 55.4 °F 55.4 °F 100% 29.94 in 5.0 mi Calm Calm - N/A   Scattered Clouds
6:45 AM 55.4 °F 55.4 °F 100% 29.96 in 4.0 mi West 4.6 mph - N/A   Scattered Clouds
7:30 AM 57.2 °F 55.4 °F 94% 29.97 in 0.5 mi WSW 6.9 mph - N/A Fog Fog
7:54 AM 55.4 °F 55.4 °F 100% 29.98 in 1.0 mi West 6.9 mph - N/A   Overcast
8:54 AM 60.8 °F 57.2 °F 88% 29.99 in 2.5 mi WSW 6.9 mph - N/A   Overcast
9:45 AM 62.6 °F 57.2 °F 82% 29.99 in 7.0 mi WSW 6.9 mph - N/A   Mostly Cloudy
10:45 AM 66.2 °F 59.0 °F 78% 29.99 in 7.0 mi WSW 5.8 mph - N/A   Mostly Cloudy
11:45 AM 68.0 °F 59.0 °F 73% 29.99 in 10.0 mi South 9.2 mph - N/A   Mostly Cloudy
12:54 PM 69.8 °F 57.2 °F 64% 29.97 in 10.0 mi SSW 9.2 mph - N/A   Mostly Cloudy
1:50 PM 68.0 °F 60.8 °F 78% 29.96 in 10.0 mi ESE 11.5 mph - N/A   Mostly Cloudy
2:50 PM 66.2 °F 59.0 °F 78% 29.96 in 10.0 mi SE 10.4 mph - N/A   Mostly Cloudy
3:50 PM 69.8 °F 62.6 °F 78% 29.95 in 10.0 mi SE 10.4 mph - N/A   Mostly Cloudy
4:45 PM 69.8 °F 62.6 °F 78% 29.94 in 10.0 mi ESE 9.2 mph - N/A   Mostly Cloudy
5:45 PM 69.8 °F 62.6 °F 78% 29.95 in 10.0 mi East 6.9 mph - N/A   Mostly Cloudy
6:50 PM 68.0 °F 62.6 °F 83% 29.95 in 10.0 mi East 6.9 mph - N/A   Mostly Cloudy
7:55 PM 68.0 °F 62.6 °F 83% 29.97 in 10.0 mi Calm Calm - N/A   Mostly Cloudy
9:45 PM 64.4 °F 62.6 °F 94% 29.99 in 10.0 mi Calm Calm - N/A   Mostly Cloudy
10:12 PM 62.6 °F 60.8 °F 94% 30.00 in 10.0 mi Calm Calm - N/A   Clear
10:30 PM 62.6 °F 60.8 °F 94% 30.00 in 4.0 mi Calm Calm - N/A   Clear
10:51 PM 60.8 °F 60.8 °F 100% 29.99 in 10.0 mi Calm Calm - N/A   Clear
11:12 PM 60.8 °F 60.8 °F 100% 29.99 in 7.0 mi Calm Calm - N/A   Clear
11:30 PM 60.8 °F 60.8 °F 100% 30.00 in 7.0 mi Calm Calm - N/A   Clear
11:51 PM 60.8 °F 59.0 °F 94% 30.00 in 10.0 mi Calm Calm - N/A   Clear